WetterOnline ( https://www.wetteronline.de )

Wetter aktuell Gardasee

Aktuelles Wetter: Brescia-Ghedi (97m)

6-stündlich | Neueste Meldungen
Ortszeit Temperatur Wetter
Sa, 25.05. 14:00 19.8° C wolkig
Sa, 25.05. 8:00 16.2° C wolkig
Sa, 25.05. 2:00 16.0° C leicht bewölkt
Fr, 24.05. 20:00 19.7° C wolkig
Fr, 24.05. 14:00 20.5° C wolkig
Fr, 24.05. 8:00 14.0° C leicht bewölkt
Fr, 24.05. 2:00 13.2° C leicht bewölkt
Do, 23.05. 20:00 18.3° C leicht bewölkt
Ortszeit Temperatur Wetter
Sa, 25.05. 18:00 21.2° C leicht bewölkt
Sa, 25.05. 17:00 21.0° C leicht bewölkt
Sa, 25.05. 16:00 21.4° C leicht bewölkt
Sa, 25.05. 15:00 21.0° C leicht bewölkt
Sa, 25.05. 14:00 19.8° C wolkig
Sa, 25.05. 13:00 18.8° C leichte Gewitter
Sa, 25.05. 12:00 19.2° C wolkig
Ortszeit Relative Feuchte Sichtweite
Sa, 25.05. 14:00 77% 20 km
Sa, 25.05. 8:00 100% 10 km
Sa, 25.05. 2:00 98% 10 km
Fr, 24.05. 20:00 67% 20 km
Fr, 24.05. 14:00 66% 20 km
Fr, 24.05. 8:00 99% 10 km
Fr, 24.05. 2:00 100% 10 km
Do, 23.05. 20:00 75% 10 km
Ortszeit Relative Feuchte Sichtweite
Sa, 25.05. 18:00 65% 20 km
Sa, 25.05. 17:00 65% 20 km
Sa, 25.05. 16:00 65% 20 km
Sa, 25.05. 15:00 68% 20 km
Sa, 25.05. 14:00 77% 20 km
Sa, 25.05. 13:00 80% 10 km
Sa, 25.05. 12:00 72% 10 km
Ortszeit Niederschlagsmenge Niederschlagsart
Sa, 25.05. 14:00 0.0 l/m2 in 6 Std. -
Sa, 25.05. 8:00 0.0 l/m2 in 12 Std. -
Sa, 25.05. 2:00 0.0 l/m2 in 6 Std. -
Fr, 24.05. 20:00 0.0 l/m2 in 12 Std. -
Fr, 24.05. 14:00 0.0 l/m2 in 6 Std. -
Fr, 24.05. 8:00 0.0 l/m2 in 12 Std. -
Fr, 24.05. 2:00 0.0 l/m2 in 6 Std. -
Do, 23.05. 20:00 10 l/m2 in 12 Std. Gewitter, Regen
Ortszeit Niederschlagsmenge Niederschlagsart
Sa, 25.05. 18:00 keine Meldung -
Sa, 25.05. 17:00 keine Meldung -
Sa, 25.05. 16:00 keine Meldung -
Sa, 25.05. 15:00 keine Meldung -
Sa, 25.05. 14:00 keine Meldung -
Sa, 25.05. 13:00 keine Meldung -
Sa, 25.05. 12:00 keine Meldung -
Ortszeit Stärke Spitze Richtung
km/h Bft. km/h Grad Sektor
Sa, 25.05. 14:00 11 2 - 330° NW
Sa, 25.05. 8:00 9 2 - 100° O
Sa, 25.05. 2:00 13 3 - 70° O
Fr, 24.05. 20:00 7 2 - 310° NW
Fr, 24.05. 14:00 6 1 - 240° SW
Fr, 24.05. 8:00 4 1 - 30° NO
Fr, 24.05. 2:00 4 1 - 50° NO
Do, 23.05. 20:00 7 2 - 280° W
Ortszeit Stärke Spitze Richtung
km/h Bft. km/h Grad Sektor
Sa, 25.05. 18:00 6 1 - 280° W
Sa, 25.05. 17:00 11 2 - 70° O
Sa, 25.05. 16:00 7 2 - 60° NO
Sa, 25.05. 15:00 6 1 - 20° N
Sa, 25.05. 14:00 11 2 - 330° NW
Sa, 25.05. 13:00 15 3 - 300° NW
Sa, 25.05. 12:00 7 2 - 50° NO
Ortszeit Untergrenze Bedeckung Gattung
total tief tief mittel hoch
Sa, 25.05. 14:00 900 m 6/8 4/8 Cb Ac -
Sa, 25.05. 8:00 1080 m 7/8 3/8 Cu Ac -
Sa, 25.05. 2:00 2700 m 6/8 6/8 - Ac -
Fr, 24.05. 20:00 1200 m 6/8 3/8 Cu Ac -
Fr, 24.05. 14:00 1200 m 6/8 6/8 Cu - -
Fr, 24.05. 8:00 750 m 4/8 4/8 Cu - -
Fr, 24.05. 2:00 960 m 4/8 4/8 Sc - -
Do, 23.05. 20:00 3000 m 4/8 4/8 - Ac Ci
Ortszeit Bedeckungsgrad in Achtel und Wolkenuntergrenze
Sa, 25.05. 18:00 4(900m)
Sa, 25.05. 17:00 1(750m) 3(1050m)
Sa, 25.05. 16:00 1(900m) 3(1050m)
Sa, 25.05. 15:00 1(900m) 3(1050m)
Sa, 25.05. 14:00 3(900m)
Sa, 25.05. 13:00 1(750m) 3(900m)
Sa, 25.05. 12:00 1(900m) 4(1050m)
Ortszeit Luftdruck NN (hPa) Tendenz (hPa in 3 Std.)
Sa, 25.05. 14:00 1017 + 0,1
Sa, 25.05. 8:00 1017 0,0
Sa, 25.05. 2:00 1017 0,0
Fr, 24.05. 20:00 1016 - 0,4
Fr, 24.05. 14:00 1017 - 1,2
Fr, 24.05. 8:00 1018 + 1,0
Fr, 24.05. 2:00 1017 + 0,4
Do, 23.05. 20:00 1015 - 0,4
Ortszeit Luftdruck NN (hPa) Tendenz (hPa in 3 Std.)
Sa, 25.05. 18:00 1016 - 0,6
Sa, 25.05. 17:00 1016 - 0,8
Sa, 25.05. 16:00 1016 - 0,5
Sa, 25.05. 15:00 1016 - 0,5
Sa, 25.05. 14:00 1017 + 0,1
Sa, 25.05. 13:00 1017 + 0,3
Sa, 25.05. 12:00 1017 + 0,4
Ortszeit Schneehöhe (cm)
Sa, 25.05. 14:00 -
Sa, 25.05. 8:00 0
Sa, 25.05. 2:00 -
Fr, 24.05. 20:00 -
Fr, 24.05. 14:00 -
Fr, 24.05. 8:00 0
Fr, 24.05. 2:00 -
Do, 23.05. 20:00 -
Ortszeit Schneehöhe (cm)
Sa, 25.05. 18:00 -
Sa, 25.05. 17:00 -
Sa, 25.05. 16:00 -
Sa, 25.05. 15:00 -
Sa, 25.05. 14:00 -
Sa, 25.05. 13:00 -
Sa, 25.05. 12:00 -
Link zu dieser Seite / Seite empfehlen

Das Wetter in ...